Location: Belfast
(54.5830°N, 5.9330°W)
Time: 12:59:36
(UTC+00:00)

ISS - Pass Details

Date: 12 December 2017
Orbit: 402 x 406 km, 51.6° (Epoch: 16 December)

Event Time Altitude Azimuth Distance (km) Brightness Sun altitude
Rises 17:50:51 0° 275° (W) 2,333 1.3 -14.9°
Reaches altitude 10° 17:53:04 10° 264° (W) 1,470 0.3 -15.2°
Maximum altitude 17:56:00 30° 202° (SSW) 758 -2.1 -15.7°
Enters shadow 17:58:38 12° 141° (SE) 1,355 -1.4 -16.0°
